owner,sensor,date,latitude,longitude,vertical_datum,direction_of_sea_water_velocity,sea_water_speed,upward_sea_water_velocity,qcFlag 
TABS,ioos:station:wmo:42050:1,2010-03-01T00:00:00Z,28.8425,-94.2433,2.0,276.650055,13.90353193,-99999.0,'11111222,11111222,99999999' 
TABS,ioos:station:wmo:42050:1,2010-03-01T00:30:00Z,28.8425,-94.2433,2.0,279.9296844,13.91848052,-99999.0,'11111222,11111222,99999999' 
TABS,ioos:station:wmo:42050:1,2010-03-01T01:00:00Z,28.8425,-94.2433,2.0,289.398188,14.30183904,-99999.0,'11111222,11111222,99999999' 
TABS,ioos:station:wmo:42050:1,2010-03-01T01:30:00Z,28.8425,-94.2433,2.0,296.475464,14.24377057,-99999.0,'11111222,11111222,99999999' 
TABS,ioos:station:wmo:42050:1,2010-03-01T02:00:00Z,28.8425,-94.2433,2.0,308.341124,15.42708333,-99999.0,'11111222,11111222,99999999' 
TABS,ioos:station:wmo:42050:1,2010-03-01T02:30:00Z,28.8425,-94.2433,2.0,316.5731402,15.97248885,-99999.0,'11111222,11111222,99999999' 
TABS,ioos:station:wmo:42050:1,2010-03-01T03:00:00Z,28.8425,-94.2433,2.0,320.56412,12.90894651,-99999.0,'11111222,11111222,99999999' 
TABS,ioos:station:wmo:42050:1,2010-03-01T03:30:00Z,28.8425,-94.2433,2.0,323.8942957,15.00133327,-99999.0,'11111222,11111222,99999999' 
TABS,ioos:station:wmo:42050:1,2010-03-01T04:00:00Z,28.8425,-94.2433,2.0,328.8726689,12.59319261,-99999.0,'11111222,11111222,99999999' 
TABS,ioos:station:wmo:42050:1,2010-03-01T04:30:00Z,28.8425,-94.2433,2.0,339.2353493,15.09021537,-99999.0,'11111222,11111222,99999999' 
TABS,ioos:station:wmo:42050:1,2010-03-01T05:00:00Z,28.8425,-94.2433,2.0,344.9047249,15.74325252,-99999.0,'11111222,11111222,99999999' 
TABS,ioos:station:wmo:42050:1,2010-03-01T05:30:00Z,28.8425,-94.2433,2.0,343.048531,16.737219,-99999.0,'11111222,11111222,99999999' 
TABS,ioos:station:wmo:42050:1,2010-03-01T06:00:00Z,28.8425,-94.2433,2.0,346.603603,12.8188065,-99999.0,'11111222,11111222,99999999' 
TABS,ioos:station:wmo:42050:1,2010-03-01T06:30:00Z,28.8425,-94.2433,2.0,339.196762,13.00807442,-99999.0,'11111222,11111222,99999999' 
TABS,ioos:station:wmo:42050:1,2010-03-01T07:00:00Z,28.8425,-94.2433,2.0,335.7988032,11.9283905,-99999.0,'11111222,11111222,99999999' 
TABS,ioos:station:wmo:42050:1,2010-03-01T07:30:00Z,28.8425,-94.2433,2.0,334.1792789,9.298354693,-99999.0,'11133222,11111222,99999999' 
TABS,ioos:station:wmo:42050:1,2010-03-01T08:00:00Z,28.8425,-94.2433,2.0,347.3219574,6.652195126,-99999.0,'11133222,11111222,99999999' 
TABS,ioos:station:wmo:42050:1,2010-03-01T08:30:00Z,28.8425,-94.2433,2.0,264.2618578,4.201047488,-99999.0,'11133222,11111222,99999999' 
TABS,ioos:station:wmo:42050:1,2010-03-01T09:00:00Z,28.8425,-94.2433,2.0,241.3735382,11.68878095,-99999.0,'11111222,11111222,99999999' 
TABS,ioos:station:wmo:42050:1,2010-03-01T09:30:00Z,28.8425,-94.2433,2.0,223.9621601,17.96345735,-99999.0,'11111222,11111222,99999999' 
TABS,ioos:station:wmo:42050:1,2010-03-01T10:00:00Z,28.8425,-94.2433,2.0,227.2349136,18.12987038,-99999.0,'11111222,11111222,99999999' 
TABS,ioos:station:wmo:42050:1,2010-03-01T10:30:00Z,28.8425,-94.2433,2.0,232.3663428,22.666012,-99999.0,'11111222,11111222,99999999' 
TABS,ioos:station:wmo:42050:1,2010-03-01T11:00:00Z,28.8425,-94.2433,2.0,231.4024995,24.28503449,-99999.0,'11111222,11111222,99999999' 
TABS,ioos:station:wmo:42050:1,2010-03-01T11:30:00Z,28.8425,-94.2433,2.0,237.5727368,26.79853168,-99999.0,'11111222,11111222,99999999' 
TABS,ioos:station:wmo:42050:1,2010-03-01T12:00:00Z,28.8425,-94.2433,2.0,241.3320229,25.59785147,-99999.0,'11111222,11111222,99999999' 
TABS,ioos:station:wmo:42050:1,2010-03-01T12:30:00Z,28.8425,-94.2433,2.0,244.5702816,23.91720929,-99999.0,'11111222,11111222,99999999' 
TABS,ioos:station:wmo:42050:1,2010-03-01T13:00:00Z,28.8425,-94.2433,2.0,245.7198008,26.58115498,-99999.0,'11111222,11111222,99999999' 
TABS,ioos:station:wmo:42050:1,2010-03-01T13:30:00Z,28.8425,-94.2433,2.0,254.1288833,24.24416012,-99999.0,'11111222,11111222,99999999' 
TABS,ioos:station:wmo:42050:1,2010-03-01T14:00:00Z,28.8425,-94.2433,2.0,260.710925,24.41007374,-99999.0,'11111222,11111222,99999999' 
TABS,ioos:station:wmo:42050:1,2010-03-01T14:30:00Z,28.8425,-94.2433,2.0,260.4956535,24.89165724,-99999.0,'11111222,11111222,99999999' 
TABS,ioos:station:wmo:42050:1,2010-03-01T15:00:00Z,28.8425,-94.2433,2.0,273.5254724,19.51692599,-99999.0,'11111222,11111222,99999999' 
TABS,ioos:station:wmo:42050:1,2010-03-01T15:30:00Z,28.8425,-94.2433,2.0,290.4617396,17.70717933,-99999.0,'11111222,11111222,99999999' 
TABS,ioos:station:wmo:42050:1,2010-03-01T16:00:00Z,28.8425,-94.2433,2.0,297.6640563,17.72633352,-99999.0,'11111222,11111222,99999999' 
TABS,ioos:station:wmo:42050:1,2010-03-01T16:30:00Z,28.8425,-94.2433,2.0,303.01752,17.94856262,-99999.0,'11111222,11111222,99999999' 
TABS,ioos:station:wmo:42050:1,2010-03-01T17:00:00Z,28.8425,-94.2433,2.0,319.6176954,14.49322945,-99999.0,'11111222,11111222,99999999' 
TABS,ioos:station:wmo:42050:1,2010-03-01T17:30:00Z,28.8425,-94.2433,2.0,312.9842219,16.28060503,-99999.0,'11111222,11111222,99999999' 
TABS,ioos:station:wmo:42050:1,2010-03-01T18:00:00Z,28.8425,-94.2433,2.0,342.2415775,17.14706389,-99999.0,'11111222,11111222,99999999' 
TABS,ioos:station:wmo:42050:1,2010-03-01T18:30:00Z,28.8425,-94.2433,2.0,1.817308193,15.1376121,-99999.0,'11111222,11111222,99999999' 
TABS,ioos:station:wmo:42050:1,2010-03-01T19:00:00Z,28.8425,-94.2433,2.0,44.53929228,7.912780801,-99999.0,'11133222,11111222,99999999' 
TABS,ioos:station:wmo:42050:1,2010-03-01T19:30:00Z,28.8425,-94.2433,2.0,123.5049259,8.586803829,-99999.0,'11133222,11111222,99999999' 
TABS,ioos:station:wmo:42050:1,2010-03-01T20:00:00Z,28.8425,-94.2433,2.0,168.5630834,18.60950564,-99999.0,'11111222,11111222,99999999' 
TABS,ioos:station:wmo:42050:1,2010-03-01T20:30:00Z,28.8425,-94.2433,2.0,192.0145827,28.53509593,-99999.0,'11111222,11111222,99999999' 
TABS,ioos:station:wmo:42050:1,2010-03-01T21:00:00Z,28.8425,-94.2433,2.0,209.0318509,29.71357939,-99999.0,'11111222,11111222,99999999' 
TABS,ioos:station:wmo:42050:1,2010-03-01T21:30:00Z,28.8425,-94.2433,2.0,236.2024682,43.01984891,-99999.0,'11111222,11111222,99999999' 
TABS,ioos:station:wmo:42050:1,2010-03-01T22:00:00Z,28.8425,-94.2433,2.0,233.2417277,45.03408598,-99999.0,'11111222,11111222,99999999' 
TABS,ioos:station:wmo:42050:1,2010-03-01T22:30:00Z,28.8425,-94.2433,2.0,231.0943671,47.0196661,-99999.0,'11111222,11111222,99999999' 
TABS,ioos:station:wmo:42050:1,2010-03-01T23:00:00Z,28.8425,-94.2433,2.0,228.3440364,45.21162351,-99999.0,'11111222,11111222,99999999' 
TABS,ioos:station:wmo:42050:1,2010-03-01T23:30:00Z,28.8425,-94.2433,2.0,228.2514262,46.87179322,-99999.0,'11111222,11111222,99999999' 
TABS,ioos:station:wmo:42050:1,2010-03-02T00:00:00Z,28.8425,-94.2433,2.0,226.0307283,48.72754662,-99999.0,'11111222,11111222,99999999' 
TABS,ioos:station:wmo:42050:1,2010-03-02T00:30:00Z,28.8425,-94.2433,2.0,238.0491159,55.36795463,-99999.0,'11111222,11111222,99999999' 
TABS,ioos:station:wmo:42050:1,2010-03-02T01:00:00Z,28.8425,-94.2433,2.0,235.683053,59.35092249,-99999.0,'11111222,11111222,99999999' 
TABS,ioos:station:wmo:42050:1,2010-03-02T01:30:00Z,28.8425,-94.2433,2.0,239.9319926,56.36475849,-99999.0,'11111222,11111222,99999999' 
TABS,ioos:station:wmo:42050:1,2010-03-02T02:00:00Z,28.8425,-94.2433,2.0,247.7398487,51.5302484,-99999.0,'11111222,11111222,99999999' 
TABS,ioos:station:wmo:42050:1,2010-03-02T02:30:00Z,28.8425,-94.2433,2.0,247.1097653,51.41903247,-99999.0,'11111222,11111222,99999999' 
TABS,ioos:station:wmo:42050:1,2010-03-02T03:00:00Z,28.8425,-94.2433,2.0,249.9951676,48.14476607,-99999.0,'11111222,11111222,99999999' 
TABS,ioos:station:wmo:42050:1,2010-03-02T03:30:00Z,28.8425,-94.2433,2.0,247.847008,47.25849447,-99999.0,'11111222,11111222,99999999' 
TABS,ioos:station:wmo:42050:1,2010-03-02T04:00:00Z,28.8425,-94.2433,2.0,249.4599004,45.2036337,-99999.0,'11111222,11111222,99999999' 
TABS,ioos:station:wmo:42050:1,2010-03-02T04:30:00Z,28.8425,-94.2433,2.0,246.0211719,43.70151599,-99999.0,'11111222,11111222,99999999' 
TABS,ioos:station:wmo:42050:1,2010-03-02T05:00:00Z,28.8425,-94.2433,2.0,249.2994462,42.80325338,-99999.0,'11111222,11111222,99999999' 
TABS,ioos:station:wmo:42050:1,2010-03-02T05:30:00Z,28.8425,-94.2433,2.0,242.6553845,43.73706209,-99999.0,'11111222,11111222,99999999' 
TABS,ioos:station:wmo:42050:1,2010-03-02T06:00:00Z,28.8425,-94.2433,2.0,240.2079466,44.01746131,-99999.0,'11111222,11111222,99999999' 
TABS,ioos:station:wmo:42050:1,2010-03-02T06:30:00Z,28.8425,-94.2433,2.0,242.40264,39.48194777,-99999.0,'11111222,11111222,99999999' 
TABS,ioos:station:wmo:42050:1,2010-03-02T07:00:00Z,28.8425,-94.2433,2.0,240.5437238,39.10492808,-99999.0,'11111222,11111222,99999999' 
TABS,ioos:station:wmo:42050:1,2010-03-02T07:30:00Z,28.8425,-94.2433,2.0,241.2074729,37.74650712,-99999.0,'11111222,11111222,99999999' 
TABS,ioos:station:wmo:42050:1,2010-03-02T08:00:00Z,28.8425,-94.2433,2.0,238.1662646,36.72379202,-99999.0,'11111222,11111222,99999999' 
TABS,ioos:station:wmo:42050:1,2010-03-02T08:30:00Z,28.8425,-94.2433,2.0,244.8040153,44.34942277,-99999.0,'11111222,11111222,99999999' 
TABS,ioos:station:wmo:42050:1,2010-03-02T09:00:00Z,28.8425,-94.2433,2.0,249.3310551,34.56465825,-99999.0,'11111222,11111222,99999999' 
TABS,ioos:station:wmo:42050:1,2010-03-02T09:30:00Z,28.8425,-94.2433,2.0,243.5202764,35.88445903,-99999.0,'11111222,11111222,99999999' 
TABS,ioos:station:wmo:42050:1,2010-03-02T10:00:00Z,28.8425,-94.2433,2.0,243.8490178,34.6241823,-99999.0,'11111222,11111222,99999999' 
TABS,ioos:station:wmo:42050:1,2010-03-02T10:30:00Z,28.8425,-94.2433,2.0,238.1867581,36.91569449,-99999.0,'11111222,11111222,99999999' 
TABS,ioos:station:wmo:42050:1,2010-03-02T11:00:00Z,28.8425,-94.2433,2.0,232.0443869,34.42017577,-99999.0,'11111222,11111222,99999999' 
TABS,ioos:station:wmo:42050:1,2010-03-02T11:30:00Z,28.8425,-94.2433,2.0,228.7308074,33.14163092,-99999.0,'11111222,11111222,99999999' 
TABS,ioos:station:wmo:42050:1,2010-03-02T12:00:00Z,28.8425,-94.2433,2.0,227.742782,34.42604973,-99999.0,'11111222,11111222,99999999' 
TABS,ioos:station:wmo:42050:1,2010-03-02T12:30:00Z,28.8425,-94.2433,2.0,229.600933,31.90850043,-99999.0,'11111222,11111222,99999999' 
TABS,ioos:station:wmo:42050:1,2010-03-02T13:00:00Z,28.8425,-94.2433,2.0,230.1850635,32.46887279,-99999.0,'11111222,11111222,99999999' 
TABS,ioos:station:wmo:42050:1,2010-03-02T13:30:00Z,28.8425,-94.2433,2.0,235.8001582,28.07448664,-99999.0,'11111222,11111222,99999999' 
TABS,ioos:station:wmo:42050:1,2010-03-02T14:00:00Z,28.8425,-94.2433,2.0,228.6279023,25.81163497,-99999.0,'11111222,11111222,99999999' 
TABS,ioos:station:wmo:42050:1,2010-03-02T14:30:00Z,28.8425,-94.2433,2.0,223.9047818,24.05309336,-99999.0,'11111222,11111222,99999999' 
TABS,ioos:station:wmo:42050:1,2010-03-02T15:00:00Z,28.8425,-94.2433,2.0,228.7990795,25.71742794,-99999.0,'11111222,11111222,99999999' 
TABS,ioos:station:wmo:42050:1,2010-03-02T15:30:00Z,28.8425,-94.2433,2.0,231.1541693,23.61203507,-99999.0,'11111222,11111222,99999999' 
TABS,ioos:station:wmo:42050:1,2010-03-02T16:00:00Z,28.8425,-94.2433,2.0,232.9765447,23.1840829,-99999.0,'11111222,11111222,99999999' 
TABS,ioos:station:wmo:42050:1,2010-03-02T16:30:00Z,28.8425,-94.2433,2.0,237.5162557,21.59926851,-99999.0,'11111222,11111222,99999999' 
TABS,ioos:station:wmo:42050:1,2010-03-02T17:00:00Z,28.8425,-94.2433,2.0,242.9256858,18.12628202,-99999.0,'11111222,11111222,99999999' 
TABS,ioos:station:wmo:42050:1,2010-03-02T17:30:00Z,28.8425,-94.2433,2.0,238.7270534,19.72605384,-99999.0,'11111222,11111222,99999999' 
TABS,ioos:station:wmo:42050:1,2010-03-02T18:00:00Z,28.8425,-94.2433,2.0,241.0324885,17.81923118,-99999.0,'11111222,11111222,99999999' 
TABS,ioos:station:wmo:42050:1,2010-03-02T18:30:00Z,28.8425,-94.2433,2.0,254.8370576,13.57249056,-99999.0,'11111222,11111222,99999999' 
TABS,ioos:station:wmo:42050:1,2010-03-02T19:00:00Z,28.8425,-94.2433,2.0,255.5112489,8.913461729,-99999.0,'11133222,11111222,99999999' 
TABS,ioos:station:wmo:42050:1,2010-03-02T19:30:00Z,28.8425,-94.2433,2.0,262.1062533,6.84485208,-99999.0,'11133222,11111222,99999999' 
TABS,ioos:station:wmo:42050:1,2010-03-02T20:00:00Z,28.8425,-94.2433,2.0,277.6803248,6.659737232,-99999.0,'11133222,11111222,99999999' 
TABS,ioos:station:wmo:42050:1,2010-03-02T20:30:00Z,28.8425,-94.2433,2.0,257.8065731,4.071854614,-99999.0,'11133222,11111222,99999999' 
TABS,ioos:station:wmo:42050:1,2010-03-02T21:00:00Z,28.8425,-94.2433,2.0,203.0391716,1.890819928,-99999.0,'11133222,11111222,99999999' 
TABS,ioos:station:wmo:42050:1,2010-03-02T21:30:00Z,28.8425,-94.2433,2.0,258.0333942,3.424412358,-99999.0,'11133222,11111222,99999999' 
TABS,ioos:station:wmo:42050:1,2010-03-02T22:00:00Z,28.8425,-94.2433,2.0,208.9192857,5.769454047,-99999.0,'11133222,11111222,99999999' 
TABS,ioos:station:wmo:42050:1,2010-03-02T22:30:00Z,28.8425,-94.2433,2.0,238.661962,7.095047569,-99999.0,'11133222,11111222,99999999' 
TABS,ioos:station:wmo:42050:1,2010-03-02T23:00:00Z,28.8425,-94.2433,2.0,220.494788,7.022050982,-99999.0,'11133222,11111222,99999999' 
TABS,ioos:station:wmo:42050:1,2010-03-02T23:30:00Z,28.8425,-94.2433,2.0,198.9161599,5.644864923,-99999.0,'11133222,11111222,99999999' 
TABS,ioos:station:wmo:42050:1,2010-03-03T00:00:00Z,28.8425,-94.2433,2.0,203.9559235,9.235588774,-99999.0,'11133222,11111222,99999999' 
TABS,ioos:station:wmo:42050:1,2010-03-03T00:30:00Z,28.8425,-94.2433,2.0,192.5892196,12.29562524,-99999.0,'11111222,11111222,99999999' 
TABS,ioos:station:wmo:42050:1,2010-03-03T01:00:00Z,28.8425,-94.2433,2.0,207.2279479,10.81882156,-99999.0,'11111222,11111222,99999999' 
TABS,ioos:station:wmo:42050:1,2010-03-03T01:30:00Z,28.8425,-94.2433,2.0,195.6303401,13.25,-99999.0,'11111222,11111222,99999999' 
TABS,ioos:station:wmo:42050:1,2010-03-03T02:00:00Z,28.8425,-94.2433,2.0,207.9266771,15.05298974,-99999.0,'11111222,11111222,99999999' 
TABS,ioos:station:wmo:42050:1,2010-03-03T02:30:00Z,28.8425,-94.2433,2.0,214.9574507,17.80191282,-99999.0,'11111222,11111222,99999999' 
TABS,ioos:station:wmo:42050:1,2010-03-03T03:00:00Z,28.8425,-94.2433,2.0,211.3026979,17.37997123,-99999.0,'11111222,11111222,99999999' 
TABS,ioos:station:wmo:42050:1,2010-03-03T03:30:00Z,28.8425,-94.2433,2.0,213.9197194,15.89506213,-99999.0,'11111222,11111222,99999999' 
TABS,ioos:station:wmo:42050:1,2010-03-03T04:00:00Z,28.8425,-94.2433,2.0,233.8281105,11.97888976,-99999.0,'11111222,11111222,99999999' 
TABS,ioos:station:wmo:42050:1,2010-03-03T04:30:00Z,28.8425,-94.2433,2.0,238.7686286,11.76493094,-99999.0,'11111222,11111222,99999999' 
TABS,ioos:station:wmo:42050:1,2010-03-03T05:00:00Z,28.8425,-94.2433,2.0,246.3959024,11.51323586,-99999.0,'11111222,11111222,99999999' 
TABS,ioos:station:wmo:42050:1,2010-03-03T05:30:00Z,28.8425,-94.2433,2.0,266.3238726,12.94663277,-99999.0,'11111222,11111222,99999999' 
TABS,ioos:station:wmo:42050:1,2010-03-03T06:00:00Z,28.8425,-94.2433,2.0,277.5251657,11.37798313,-99999.0,'11111222,11111222,99999999' 
TABS,ioos:station:wmo:42050:1,2010-03-03T06:30:00Z,28.8425,-94.2433,2.0,275.8398996,13.26885451,-99999.0,'11111222,11111222,99999999' 
TABS,ioos:station:wmo:42050:1,2010-03-03T07:00:00Z,28.8425,-94.2433,2.0,295.8702492,13.26980407,-99999.0,'11111222,11111222,99999999' 
TABS,ioos:station:wmo:42050:1,2010-03-03T07:30:00Z,28.8425,-94.2433,2.0,299.1536771,14.65672542,-99999.0,'11111222,11111222,99999999' 
TABS,ioos:station:wmo:42050:1,2010-03-03T08:00:00Z,28.8425,-94.2433,2.0,298.0977942,17.55941343,-99999.0,'11111222,11111222,99999999' 
TABS,ioos:station:wmo:42050:1,2010-03-03T08:30:00Z,28.8425,-94.2433,2.0,300.4814059,18.72831012,-99999.0,'11111222,11111222,99999999' 
TABS,ioos:station:wmo:42050:1,2010-03-03T09:00:00Z,28.8425,-94.2433,2.0,311.5114868,20.21829864,-99999.0,'11111222,11111222,99999999' 
TABS,ioos:station:wmo:42050:1,2010-03-03T09:30:00Z,28.8425,-94.2433,2.0,301.3416178,20.3024432,-99999.0,'11111222,11111222,99999999' 
TABS,ioos:station:wmo:42050:1,2010-03-03T10:00:00Z,28.8425,-94.2433,2.0,302.9924347,18.89726435,-99999.0,'11111222,11111222,99999999' 
TABS,ioos:station:wmo:42050:1,2010-03-03T10:30:00Z,28.8425,-94.2433,2.0,306.6156447,17.55417329,-99999.0,'11111222,11111222,99999999' 
TABS,ioos:station:wmo:42050:1,2010-03-03T11:00:00Z,28.8425,-94.2433,2.0,301.0152466,17.29220923,-99999.0,'11111222,11111222,99999999' 
TABS,ioos:station:wmo:42050:1,2010-03-03T11:30:00Z,28.8425,-94.2433,2.0,293.8280872,17.69854796,-99999.0,'11111222,11111222,99999999' 
TABS,ioos:station:wmo:42050:1,2010-03-03T12:00:00Z,28.8425,-94.2433,2.0,285.5953121,18.18962616,-99999.0,'11111222,11111222,99999999' 
TABS,ioos:station:wmo:42050:1,2010-03-03T12:30:00Z,28.8425,-94.2433,2.0,270.7488963,16.84143699,-99999.0,'11111222,11111222,99999999' 
TABS,ioos:station:wmo:42050:1,2010-03-03T13:00:00Z,28.8425,-94.2433,2.0,263.9468018,18.49309601,-99999.0,'11111222,11111222,99999999' 
TABS,ioos:station:wmo:42050:1,2010-03-03T13:30:00Z,28.8425,-94.2433,2.0,264.1278017,19.45205902,-99999.0,'11111222,11111222,99999999' 
TABS,ioos:station:wmo:42050:1,2010-03-03T14:00:00Z,28.8425,-94.2433,2.0,256.212268,20.0991169,-99999.0,'11111222,11111222,99999999' 
TABS,ioos:station:wmo:42050:1,2010-03-03T14:30:00Z,28.8425,-94.2433,2.0,248.1183173,21.30484687,-99999.0,'11111222,11111222,99999999' 
TABS,ioos:station:wmo:42050:1,2010-03-03T15:00:00Z,28.8425,-94.2433,2.0,252.968331,21.81677566,-99999.0,'11111222,11111222,99999999' 
TABS,ioos:station:wmo:42050:1,2010-03-03T15:30:00Z,28.8425,-94.2433,2.0,255.7579848,20.97461561,-99999.0,'11111222,11111222,99999999' 
TABS,ioos:station:wmo:42050:1,2010-03-03T16:00:00Z,28.8425,-94.2433,2.0,254.2093027,21.31431678,-99999.0,'11111222,11111222,99999999' 
TABS,ioos:station:wmo:42050:1,2010-03-03T16:30:00Z,28.8425,-94.2433,2.0,262.1415897,20.84574297,-99999.0,'11111222,11111222,99999999' 
TABS,ioos:station:wmo:42050:1,2010-03-03T17:00:00Z,28.8425,-94.2433,2.0,266.3905956,19.69906597,-99999.0,'11111222,11111222,99999999' 
TABS,ioos:station:wmo:42050:1,2010-03-03T17:30:00Z,28.8425,-94.2433,2.0,277.4174798,20.6830607,-99999.0,'11111222,11111222,99999999' 
TABS,ioos:station:wmo:42050:1,2010-03-03T18:00:00Z,28.8425,-94.2433,2.0,280.0370462,19.68119153,-99999.0,'11111222,11111222,99999999' 
TABS,ioos:station:wmo:42050:1,2010-03-03T18:30:00Z,28.8425,-94.2433,2.0,283.6577782,20.54079112,-99999.0,'11111222,11111222,99999999' 
TABS,ioos:station:wmo:42050:1,2010-03-03T19:00:00Z,28.8425,-94.2433,2.0,292.4925364,18.6377386,-99999.0,'11111222,11111222,99999999' 
TABS,ioos:station:wmo:42050:1,2010-03-03T19:30:00Z,28.8425,-94.2433,2.0,302.7078841,19.89447411,-99999.0,'11111222,11111222,99999999' 
TABS,ioos:station:wmo:42050:1,2010-03-03T20:00:00Z,28.8425,-94.2433,2.0,296.0686394,17.02158923,-99999.0,'11111222,11111222,99999999' 
TABS,ioos:station:wmo:42050:1,2010-03-03T20:30:00Z,28.8425,-94.2433,2.0,302.5659287,15.82864492,-99999.0,'11111222,11111222,99999999' 
TABS,ioos:station:wmo:42050:1,2010-03-03T21:00:00Z,28.8425,-94.2433,2.0,304.9570657,19.94912028,-99999.0,'11111222,11111222,99999999' 
TABS,ioos:station:wmo:42050:1,2010-03-03T21:30:00Z,28.8425,-94.2433,2.0,304.8131773,17.55131049,-99999.0,'11111222,11111222,99999999' 
TABS,ioos:station:wmo:42050:1,2010-03-03T22:00:00Z,28.8425,-94.2433,2.0,293.7351542,17.11785617,-99999.0,'11111222,11111222,99999999' 
TABS,ioos:station:wmo:42050:1,2010-03-03T22:30:00Z,28.8425,-94.2433,2.0,282.0671795,15.73773173,-99999.0,'11111222,11111222,99999999' 
TABS,ioos:station:wmo:42050:1,2010-03-03T23:00:00Z,28.8425,-94.2433,2.0,275.5869023,16.53855193,-99999.0,'11111222,11111222,99999999' 
TABS,ioos:station:wmo:42050:1,2010-03-03T23:30:00Z,28.8425,-94.2433,2.0,268.5684033,15.61487112,-99999.0,'11111222,11111222,99999999' 
TABS,ioos:station:wmo:42050:1,2010-03-04T00:00:00Z,28.8425,-94.2433,2.0,254.0718513,17.85550055,-99999.0,'11111222,11111222,99999999' 
TABS,ioos:station:wmo:42050:1,2010-03-04T00:30:00Z,28.8425,-94.2433,2.0,253.2035295,18.13359314,-99999.0,'11111222,11111222,99999999' 
TABS,ioos:station:wmo:42050:1,2010-03-04T01:00:00Z,28.8425,-94.2433,2.0,244.9610412,19.13858929,-99999.0,'11111222,11111222,99999999' 
TABS,ioos:station:wmo:42050:1,2010-03-04T01:30:00Z,28.8425,-94.2433,2.0,242.4372811,20.81200135,-99999.0,'11111222,11111222,99999999' 
TABS,ioos:station:wmo:42050:1,2010-03-04T02:00:00Z,28.8425,-94.2433,2.0,244.3280697,18.92838081,-99999.0,'11111222,11111222,99999999' 
TABS,ioos:station:wmo:42050:1,2010-03-04T02:30:00Z,28.8425,-94.2433,2.0,254.9922212,18.45961267,-99999.0,'11111222,11111222,99999999' 
TABS,ioos:station:wmo:42050:1,2010-03-04T03:00:00Z,28.8425,-94.2433,2.0,254.1173015,17.4667799,-99999.0,'11111222,11111222,99999999' 
TABS,ioos:station:wmo:42050:1,2010-03-04T03:30:00Z,28.8425,-94.2433,2.0,266.6920163,15.42569609,-99999.0,'11111222,11111222,99999999' 
TABS,ioos:station:wmo:42050:1,2010-03-04T04:00:00Z,28.8425,-94.2433,2.0,275.3918717,15.00638864,-99999.0,'11111222,11111222,99999999' 
TABS,ioos:station:wmo:42050:1,2010-03-04T04:30:00Z,28.8425,-94.2433,2.0,284.2707732,16.02446255,-99999.0,'11111222,11111222,99999999' 
TABS,ioos:station:wmo:42050:1,2010-03-04T05:00:00Z,28.8425,-94.2433,2.0,294.3092744,15.44978964,-99999.0,'11111222,11111222,99999999' 
TABS,ioos:station:wmo:42050:1,2010-03-04T05:30:00Z,28.8425,-94.2433,2.0,308.8805055,16.64824615,-99999.0,'11111222,11111222,99999999' 
TABS,ioos:station:wmo:42050:1,2010-03-04T06:00:00Z,28.8425,-94.2433,2.0,320.2498203,17.31187454,-99999.0,'11111222,11111222,99999999' 
TABS,ioos:station:wmo:42050:1,2010-03-04T06:30:00Z,28.8425,-94.2433,2.0,325.3195948,20.05263574,-99999.0,'11111222,11111222,99999999' 
TABS,ioos:station:wmo:42050:1,2010-03-04T07:00:00Z,28.8425,-94.2433,2.0,329.0365263,20.81649826,-99999.0,'11111222,11111222,99999999' 
TABS,ioos:station:wmo:42050:1,2010-03-04T07:30:00Z,28.8425,-94.2433,2.0,335.5962958,23.71919054,-99999.0,'11111222,11111222,99999999' 
TABS,ioos:station:wmo:42050:1,2010-03-04T08:00:00Z,28.8425,-94.2433,2.0,337.0681636,24.56113393,-99999.0,'11111222,11111222,99999999' 
TABS,ioos:station:wmo:42050:1,2010-03-04T08:30:00Z,28.8425,-94.2433,2.0,338.6554487,25.16623134,-99999.0,'11111222,11111222,99999999' 
TABS,ioos:station:wmo:42050:1,2010-03-04T09:00:00Z,28.8425,-94.2433,2.0,339.760194,24.19394346,-99999.0,'11111222,11111222,99999999' 
TABS,ioos:station:wmo:42050:1,2010-03-04T09:30:00Z,28.8425,-94.2433,2.0,342.0674723,23.09183839,-99999.0,'11111222,11111222,99999999' 
TABS,ioos:station:wmo:42050:1,2010-03-04T10:00:00Z,28.8425,-94.2433,2.0,333.8054421,20.07136518,-99999.0,'11111222,11111222,99999999' 
TABS,ioos:station:wmo:42050:1,2010-03-04T10:30:00Z,28.8425,-94.2433,2.0,333.8846467,17.67442503,-99999.0,'11111222,11111222,99999999' 
TABS,ioos:station:wmo:42050:1,2010-03-04T11:00:00Z,28.8425,-94.2433,2.0,326.2409614,18.3550429,-99999.0,'11111222,11111222,99999999' 
TABS,ioos:station:wmo:42050:1,2010-03-04T11:30:00Z,28.8425,-94.2433,2.0,314.5328185,15.59929486,-99999.0,'11111222,11111222,99999999' 
TABS,ioos:station:wmo:42050:1,2010-03-04T12:00:00Z,28.8425,-94.2433,2.0,294.7575393,15.59315555,-99999.0,'11111222,11111222,99999999' 
TABS,ioos:station:wmo:42050:1,2010-03-04T12:30:00Z,28.8425,-94.2433,2.0,296.5182013,16.28305254,-99999.0,'11111222,11111222,99999999' 
TABS,ioos:station:wmo:42050:1,2010-03-04T13:00:00Z,28.8425,-94.2433,2.0,294.8331098,15.97729952,-99999.0,'11111222,11111222,99999999' 
TABS,ioos:station:wmo:42050:1,2010-03-04T13:30:00Z,28.8425,-94.2433,2.0,278.3796142,16.26360969,-99999.0,'11111222,11111222,99999999' 
TABS,ioos:station:wmo:42050:1,2010-03-04T14:00:00Z,28.8425,-94.2433,2.0,274.658417,17.11653294,-99999.0,'11111222,11111222,99999999' 
TABS,ioos:station:wmo:42050:1,2010-03-04T14:30:00Z,28.8425,-94.2433,2.0,276.4592222,17.06833325,-99999.0,'11111222,11111222,99999999' 
TABS,ioos:station:wmo:42050:1,2010-03-04T15:00:00Z,28.8425,-94.2433,2.0,270.9802965,17.54256538,-99999.0,'11111222,11111222,99999999' 
TABS,ioos:station:wmo:42050:1,2010-03-04T15:30:00Z,28.8425,-94.2433,2.0,276.0514607,19.25729472,-99999.0,'11111222,11111222,99999999' 
TABS,ioos:station:wmo:42050:1,2010-03-04T16:00:00Z,28.8425,-94.2433,2.0,282.9309421,20.10994779,-99999.0,'11111222,11111222,99999999' 